Miscellaneous Local Product
Issued by NWS Hastings, NE

Home | Current Version | Previous Version | Text Only | Print | Product List | Glossary On
Versions: 1 2 3 4 5 6 7 8 9 10 11 12 13 14 15 16 17 18 19 20 21 22 23 24 25 26 27 28 29 30 31 32 33 34 35 36 37 38 39 40 41 42 43 44 45 46 47 48 49 50
000
AXUS43 KGID 040002
MISGRI

GID CWA HOURLY WEATHER ROUNDUP
NATIONAL WEATHER SERVICE HASTINGS NE
700 PM CDT FRI JUL 03 2015

NOTE: "FAIR" INDICATES FEW OR NO CLOUDS BELOW 12,000 FEET WITH NO
SIGNIFICANT WEATHER AND/OR OBSTRUCTIONS TO VISIBILITY.

...SOUTH CENTRAL NEBRASKA...

CITY           SKY/WX    TMP DP  RH WIND       PRES   REMARKS
GRAND ISLAND   SUNNY     76  61  59 SE6       29.99F
HASTINGS       MOSUNNY   77  62  59 E6        29.98F
KEARNEY        SUNNY     79  61  53 E7        29.99F
ORD            SUNNY     81  59  47 SE7       29.95F
YORK           MOSUNNY   73  63  68 CALM      29.99S
AURORA         SUNNY     75  62  64 E5        29.99S
LEXINGTON      SUNNY     82  60  47 E6        29.97F
HOLDREGE       SUNNY     76  59  55 E3        30.00S
HEBRON         SUNNY     77  60  54 NE5       29.97F

...NEBRASKA PANHANDLE...

CITY           SKY/WX    TMP DP  RH WIND       PRES   REMARKS
CHADRON        SUNNY     83  58  42 E9        29.96F
ALLIANCE       SUNNY     80  58  46 SE9       30.01F
SCOTTSBLUFF    SUNNY     85  56  37 SE10      29.99F
SIDNEY         MOSUNNY   81  56  42 E10       30.04F

...WESTERN AND NORTH CENTRAL NEBRASKA...

CITY           SKY/WX    TMP DP  RH WIND       PRES   REMARKS
VALENTINE      MOSUNNY   81  59  47 E5        29.98F
AINSWORTH      SUNNY     80  58  46 CALM      29.98F
ONEILL         SUNNY     79  63  57 N5        29.98S
BROKEN BOW     SUNNY     81  61  50 SE6       29.98F
IMPERIAL       SUNNY     86  54  33 E5        29.99F
NORTH PLATTE   PTSUNNY   81  60  48 SE7       29.98F
MCCOOK         SUNNY     83  61  47 E10       29.97F

...EASTERN NEBRASKA...

CITY           SKY/WX    TMP DP  RH WIND       PRES   REMARKS
NORFOLK        PTSUNNY   76  64  66 E6        29.97F
SO SIOUX CITY  SUNNY     78  56  46 CALM      29.95F
TEKAMAH        SUNNY     79  56  45 E6        29.95F
COLUMBUS       SUNNY     75  61  60 CALM      29.99F
ALBION         SUNNY     76  63  62 SE3       29.98F
OMAHA EPPLEY   SUNNY     78  54  43 NW5       29.96S
OFFUTT AFB     SUNNY     77  59  52 NE6       29.95F
MILLARD        SUNNY     78  56  46 CALM      29.95F
LINCOLN        SUNNY     77  62  59 N6        29.97F
NEBRASKA CITY  SUNNY     75  51  42 N3        29.97S
BEATRICE       MOSUNNY   77  60  55 NE6       29.97S
FALLS CITY     SUNNY     79  58  48 CALM      29.94F

...NORTHERN KANSAS...

CITY           SKY/WX    TMP DP  RH WIND       PRES   REMARKS
GOODLAND       MOSUNNY   84  54  35 S5        30.00F
HILL CITY      SUNNY     84  57  39 NE10      29.96F
NORTON         CLEAR     79  54  41 NE10      29.96F
PHILLIPSBURG   SUNNY     84  55  37 N8        29.96F
SMITH CENTER   MOSUNNY   81  59  47 NE7       29.97F
HAYS           MOSUNNY   82  57  42 E7        29.96F
RUSSELL        MOSUNNY   81  61  50 NE8       29.94F
CONCORDIA      MOSUNNY   79  62  56 NE7       29.96F
SALINA         SUNNY     83  60  45 NE9       29.93F
TOPEKA         SUNNY     79  57  46 NE6       29.94F



USA.gov is the U.S. government's official web portal to all federal, state and local government web resources and services.